Regional Weather Roundup
Issued by NWS Newport/Morehead, NC

Current Version | Previous Version | Graphics & Text | Print | Product List | Glossary On
Versions: 1 2 3 4 5 6 7 8 9 10 11 12 13 14 15 16 17 18 19 20 21 22 23 24 25 26 27 28 29 30 31 32 33 34 35 36 37 38 39 40 41 42 43 44 45 46 47 48 49 50
000 ASUS42 KMHX 290013 RWRMHX WEATHER ROUNDUP FOR EASTERN NORTH CAROLINA NATIONAL WEATHER SERVICE NEWPORT/MOREHEAD CITY NC 800 PM EDT SAT MAY 28 2016 NOTE: "FAIR" INDICATES FEW OR NO CLOUDS BELOW 12,000 FEET WITH NO SIGNIFICANT WEATHER AND/OR OBSTRUCTIONS TO VISIBILITY NCZ015>017-031-032-045>047-102-103-290100- NORTH COAST CITY SKY/WX TMP DP RH WIND PRES REMARKS EDENTON CLEAR N/A N/A N/A E7 30.14S ELIZABETH CITY CLEAR 74 66 76 E8 30.15S KITTY HAWK CLEAR 73 65 78 E5 30.14S MANTEO NOT AVBL $$ NCZ045>047-081-094-103-104-290100- CENTRAL COAST CITY SKY/WX TMP DP RH WIND PRES REMARKS FRISCO MOCLDY 75 69 81 E5 30.13F $$ NCZ095-097-098-100-101-290100- SOUTHERN COAST CITY SKY/WX TMP DP RH WIND PRES REMARKS BEAUFORT PTCLDY 77 71 82 E8 30.11S CEDAR ISLAND NOT AVBL JACKSONVILLE CLOUDY 78 67 68 E9 30.10R PINEY ISLAND PTCLDY N/A N/A N/A E10 30.12S WILMINGTON MOCLDY 76 68 76 E14G20 30.10R $$ NCZ011>013-027>030-043-044-078>080-089-090>093-098-290100- COASTAL PLAIN CITY SKY/WX TMP DP RH WIND PRES REMARKS AHOSKIE PTCLDY 77 65 67 SE3 30.14R CLINTON PTCLDY 79 68 69 CALM 30.11R ELIZABETHTOWN PTCLDY 77 73 86 CALM 30.10R GOLDSBORO NOT AVBL GREENVILLE PTCLDY 81 64 57 SE6 30.13S HAVELOCK MOCLDY 77 70 79 NE8 30.12S KENANSVILLE PTCLDY 76 61 57 CALM 30.12R KINSTON CLOUDY 81 63 54 E3 30.12S NEW BERN CLEAR 77 68 73 E8 30.13S RICHLANDS PTCLDY 78 68 71 E3 30.11R ROCKY MOUNT MOCLDY 81 66 60 VRB3 30.12R WASHINGTON CLEAR 76 67 72 SE8 30.12S WHITEVILLE CLOUDY 76 69 78 CALM 30.09S $$ AMZ130-135-150-152-154-156-158-170-250-252-270-ANZ085-086-088-633-658-670-290100- MARINE OBSERVATIONS STATION/POSITION TIME TEMP WIND PRES WAVE SWELL AIR SEA DIR/SP/G HT/PER HT/PER (UTC) (F) (DEG/KT/KT) (MB) (FT/S) (FT/S) CHESAPEAKE LIGHT 0000 72 130/ 14/ 14 1021.8 64 E VA BEACH 2350 71 66 120/ 2/ 4 1021.1 4/ 8 3/ 8 DUCK 2300 90/ 9/ 10 N/A 2 E DUCK 2311 68 N/A 2/ 8 OREGON INLET 2300 60/ 6/ 9 N/A 13E OREGON INLT 0000 71 N/A 3/ 8 3/ 8 HATTERAS CG 2300 90/ 6/ 9 N/A DIAMOND BUOY 2350 78 78 130/ 12/ 16 1020.2 4/ 8 3/ 8 CAPE LOOKOUT 0000 75 50/ 7/ 8 1019.5 BEAUFORT LAB 2300 100/ 8/ 12 N/A 30 SE NEW RVR IN 2325 75 N/A 6/ 7 27 SE WRIGHTSVLE 2308 76 74 70/ 14/ 19 1018.2 5 SE WRIGHTSVLE 2308 76 75 70/ 16/ 19 1019.3 225 S CAPE HAT 2350 76 76 130/ 14/ 16 1018.1 5/ 5 2/ 7 41 SE CHARLESTON 2350 76 77 60/ 19/ 23 1015.0 9/ 9 5/ 9 $$

USA.gov is the U.S. government's official web portal to all federal, state and local government web resources and services.